Powrót do katalogu

STARLINK-4145

AktywnyŁącznośćVLEO
NORAD 53137·PAYLOAD·🇺🇸 United States

Wystrzelony Jul 17, 2022 z Cape Canaveral Space Force Station

Loading…

Następne Przeloty (najbliższe 24 godziny)

TLE

ŚwieżeSource: CelesTrak SupGP

Epoka: Sep 15, 2026, 01:44 UTC

1 53137C 22083F   26258.07270833 -.00048935  00000+0 -14002-2 0  2584
2 53137  53.1586  31.5851 0001188  88.5877 292.7522 15.35420708    18

Śledź STARLINK-4145 w czasie rzeczywistym z AllMySat

Download on the App Store